Perth, Australia

3:50 PM AWST on July 25, 2017 (GMT +0800)
Perth International

Weather History for YPPH - May, 2013

Change the Weather History Date:

Saturday, May 4, 2013

  Actual Average Record
Temperature  
Mean Temperature 63 °F -  
Max Temperature 74 °F 70 °F 84 °F (1998)
Min Temperature 52 °F 51 °F 41 °F (2006)
Degree Days  
Heating Degree Days 2    
Growing Degree Days 13 (Base 50)    
Moisture  
Dew Point 53 °F    
Average Humidity 70    
Maximum Humidity 100    
Minimum Humidity 35    
Precipitation  
Precipitation 0.00 in 0.15 in - ()
Sea Level Pressure  
Sea Level Pressure 30.14 in    
Wind  
Wind Speed 8 mph ()    
Max Wind Speed 17 mph    
Max Gust Speed -    
Visibility 9.0 miles    
Events      
Averages and records for this station are not official NWS values.
T = Trace of Precipitation, MM = Missing Value Source: Averaged Metar Reports

Daily Weather History Graph

Daily Weather History Graph

Search for Another Location

Airport or City:

Trip Planner

Search our weather history database for the weather conditions in past years. The results will help you decide how hot, cold, wet, or windy it might be!

Date:

Astronomy

May. 04, 2013 Rise Set
Actual Time 6:49 AM AWST 5:35 PM AWST
Civil Twilight 6:24 AM AWST 6:01 PM AWST
Nautical Twilight 5:55 AM AWST 6:30 PM AWST
Astronomical Twilight 5:26 AM AWST 6:58 PM AWST
Moon 1:10 AM AWST (5/4) 2:03 PM AWST (5/4)
Length of Visible Light 11h 36m
Length of Day
10h 45m
Waning Crescent, 32% of the Moon is Illuminated
May 4
Waning Crescent
May 10
New
May 18
First Quarter
May 25
Full
Jun 1
Last Quarter

Hourly Weather History & Observations

Time (AWST) Temp. Dew Point Humidity Pressure Visibility Wind Dir Wind Speed Gust Speed Precip Events Conditions
12:00 AM 53 °F 51 °F 92% 30.15 in 19 mi Calm Calm - -   Partly Cloudy
12:00 AM 51.8 °F 51.8 °F 100% 30.12 in - Calm Calm - N/A   Clear
12:30 AM 53.6 °F 51.8 °F 94% 30.12 in - North 2.3 mph - N/A   Clear
1:00 AM 53.6 °F 51.8 °F 94% 30.15 in - ENE 2.3 mph - N/A   Clear
1:30 AM 55.4 °F 53.6 °F 94% 30.15 in - North 4.6 mph - N/A   Clear
2:00 AM 60 °F 55 °F 80% 30.15 in - East 11.5 mph - -  
2:00 AM 59.0 °F 55.4 °F 88% 30.15 in - East 11.5 mph - N/A   Clear
2:30 AM 60.8 °F 55.4 °F 82% 30.12 in - ESE 13.8 mph - N/A   Clear
3:00 AM 61 °F 55 °F 76% 30.15 in 19 mi ESE 12.7 mph - -   Partly Cloudy
3:00 AM 60.8 °F 55.4 °F 82% 30.12 in - ESE 12.7 mph - N/A   Clear
3:30 AM 60.8 °F 55.4 °F 82% 30.12 in - East 13.8 mph - N/A   Clear
4:00 AM 60.8 °F 55.4 °F 82% 30.15 in - ESE 6.9 mph - N/A   Clear
4:30 AM 60.8 °F 55.4 °F 82% 30.15 in 6.2 mi East 9.2 mph - N/A   Scattered Clouds
5:00 AM 60 °F 54 °F 76% 30.15 in - East 11.5 mph - -  
5:00 AM 60.8 °F 55.4 °F 82% 30.12 in 6.2 mi East 11.5 mph - N/A   Partly Cloudy
5:30 AM 60.8 °F 53.6 °F 77% 30.15 in 6.2 mi East 10.4 mph - N/A   Mostly Cloudy
6:00 AM 61 °F 54 °F 73% 30.16 in 19 mi East 11.5 mph - -   Partly Cloudy
6:00 AM 60.8 °F 55.4 °F 82% 30.15 in 6.2 mi East 11.5 mph - N/A   Mostly Cloudy
6:13 AM 60.8 °F 55.4 °F 82% 30.15 in 6.2 mi ENE 8.1 mph - N/A   Mostly Cloudy
6:30 AM 60.8 °F 55.4 °F 82% 30.15 in 6.2 mi East 5.8 mph - N/A   Mostly Cloudy
7:00 AM 60.8 °F 53.6 °F 77% 30.18 in 6.2 mi SSE 6.9 mph - N/A   Mostly Cloudy
7:30 AM 60.8 °F 53.6 °F 77% 30.18 in 6.2 mi SE 13.8 mph - N/A   Mostly Cloudy
8:00 AM 61 °F 53 °F 68% 30.22 in - East 8.1 mph - -  
8:00 AM 60.8 °F 53.6 °F 77% 30.21 in 6.2 mi East 8.1 mph - N/A   Mostly Cloudy
8:30 AM 62.6 °F 53.6 °F 72% 30.21 in 6.2 mi ENE 15.0 mph - N/A   Scattered Clouds
9:00 AM 65 °F 53 °F 57% 30.24 in 19 mi East 15.0 mph - -   Partly Cloudy
9:00 AM 64.4 °F 53.6 °F 68% 30.21 in 6.2 mi East 15.0 mph - N/A   Partly Cloudy
9:30 AM 64.4 °F 53.6 °F 68% 30.21 in 6.2 mi East 12.7 mph - N/A   Partly Cloudy
10:00 AM 64.4 °F 53.6 °F 68% 30.21 in 6.2 mi East 11.5 mph - N/A   Partly Cloudy
10:30 AM 66.2 °F 51.8 °F 60% 30.18 in 6.2 mi ENE 15.0 mph - N/A   Partly Cloudy
11:00 AM 68 °F 53 °F 48% 30.19 in - East 17.3 mph - -  
11:00 AM 68.0 °F 53.6 °F 60% 30.18 in 6.2 mi East 17.3 mph - N/A   Partly Cloudy
11:30 AM 68.0 °F 53.6 °F 60% 30.15 in 6.2 mi East 12.7 mph - N/A   Partly Cloudy
12:00 PM 69 °F 53 °F 47% 30.17 in 19 mi East 10.4 mph - -   Partly Cloudy
12:00 PM 69.8 °F 53.6 °F 56% 30.15 in 6.2 mi East 10.4 mph - N/A   Partly Cloudy
12:30 PM 69.8 °F 53.6 °F 56% 30.12 in 6.2 mi East 12.7 mph - N/A   Partly Cloudy
1:00 PM 71.6 °F 53.6 °F 53% 30.12 in 6.2 mi ENE 11.5 mph - N/A   Partly Cloudy
1:30 PM 71.6 °F 53.6 °F 53% 30.09 in 6.2 mi East 10.4 mph - N/A   Partly Cloudy
2:00 PM 72 °F 53 °F 40% 30.11 in - East 10.4 mph - -  
2:00 PM 73.4 °F 53.6 °F 50% 30.09 in 6.2 mi East 10.4 mph - N/A   Partly Cloudy
2:30 PM 73.4 °F 51.8 °F 47% 30.09 in 6.2 mi East 10.4 mph - N/A   Partly Cloudy
3:00 PM 73 °F 51 °F 35% 30.10 in 19 mi East 10.4 mph - -   Partly Cloudy
3:00 PM 73.4 °F 51.8 °F 47% 30.09 in 6.2 mi East 10.4 mph - N/A   Partly Cloudy
3:30 PM 73.4 °F 50.0 °F 44% 30.09 in 6.2 mi East 8.1 mph - N/A   Scattered Clouds
4:00 PM 73.4 °F 51.8 °F 47% 30.09 in 6.2 mi East 8.1 mph - N/A   Scattered Clouds
4:30 PM 71.6 °F 51.8 °F 50% 30.09 in 6.2 mi SE 5.8 mph - N/A   Mostly Cloudy
5:00 PM 72 °F 52 °F 39% 30.12 in - SSE 5.8 mph - -  
5:00 PM 71.6 °F 51.8 °F 50% 30.09 in 6.2 mi SSE 5.8 mph - N/A   Mostly Cloudy
5:30 PM 69.8 °F 53.6 °F 56% 30.09 in 6.2 mi SSE 8.1 mph - N/A   Mostly Cloudy
6:00 PM 66 °F 54 °F 55% 30.12 in 19 mi ESE 8.1 mph - -   Partly Cloudy
6:00 PM 66.2 °F 53.6 °F 64% 30.09 in 6.2 mi ESE 8.1 mph - N/A   Mostly Cloudy
6:30 PM 64.4 °F 53.6 °F 68% 30.12 in - ESE 8.1 mph - N/A   Clear
7:00 PM 62.6 °F 55.4 °F 77% 30.12 in - ESE 5.8 mph - N/A   Clear
7:30 PM 60.8 °F 53.6 °F 77% 30.12 in - ESE 5.8 mph - N/A   Clear
8:00 PM 60 °F 54 °F 74% 30.16 in - SSW 4.6 mph - -  
8:00 PM 59.0 °F 53.6 °F 82% 30.15 in - SSW 4.6 mph - N/A   Clear
8:30 PM 59.0 °F 53.6 °F 82% 30.15 in - South 6.9 mph - N/A   Clear
9:00 PM 56 °F 52 °F 83% 30.16 in 19 mi South 6.9 mph - -   Partly Cloudy
9:00 PM 55.4 °F 51.8 °F 88% 30.15 in - South 6.9 mph - N/A   Clear
9:30 PM 55.4 °F 53.6 °F 94% 30.15 in - South 5.8 mph - N/A   Clear
10:00 PM 55.4 °F 53.6 °F 94% 30.15 in - SSW 4.6 mph - N/A   Clear
10:30 PM 57.2 °F 53.6 °F 88% 30.15 in - North 4.6 mph - N/A   Clear
11:00 PM 57 °F 53 °F 80% 30.16 in - NW 4.6 mph - -  
11:00 PM 57.2 °F 51.8 °F 82% 30.15 in - NW 4.6 mph - N/A   Clear
11:30 PM 57.2 °F 51.8 °F 82% 30.12 in - North 3.5 mph - N/A   Clear